カタログに戻る

DELTA 2 R/B(2)

運用中GTO
NORAD 22177·ROCKET BODY·🇺🇸 United States

打ち上げ Oct 12, 1992 から Cape Canaveral Space Force Station

Loading…

TLE

古いSource: Space-Track

元期: Sep 9, 2026, 13:35 UTC

1 22177U 92066C   26252.56642156 -.00000194  00000-0  00000-0 0  9999
2 22177  19.3718  84.1056 6840617 254.3546  22.8260  2.18728863 51556

AllMySatでDELTA 2 R/B(2)をリアルタイム追跡

Download on the App Store